Погода в Вольном

Россия / Астраханская область     47°08′16″N   47°38′40″E
темп.,
°C
ветер,
м/с
пор.,
м/с
влажн.,
%
обл.,
%
осадки,
мм/ч
давл.,
гПа
погр.,
м
8 марта, пн
пн801:00−2юз713500 0.0 1020632
04:00−2юз714520 0.0 1019514
07:00−2юз915510 0.0 1019606
10:00+1юз1013430 0.0 10191086
13:00+4юз1012360 0.0 10181417
16:00+5зюз811390 0.0 10161367
19:00+2зюз510520 0.0 1016269
22:00+1ююз58602 0.0 1016184
9 марта, вт
вт901:000юз5106461 0.0 1015249
04:000юз5106681 0.0 1015280
07:00−1юз5107788 0.0 1014247
10:00+3юз686688 0.0 1014541
13:00+6зюз8105368 0.0 10121327
16:00+5зюз9126184 0.0 10121339
19:00+3з61065100 0.1 1012818
22:000з6125983 0.1 1015431
10 марта, ср
ср1001:00−2зсз47790 0.0 1015232
04:00−2зюз477513 0.0 1016249
07:00−3сз7108665 0.0 1018524
10:00−2сз894963 0.1 10201106
13:00−1зсз9103812 0.0 10211676
16:00−1сз9113552 0.0 10211917
19:00−4сз694547 0.0 10221238
22:00−6сз694523 0.0 1024898
11 марта, чт
чт1101:00−7ссз57480 0.0 1024791
04:00−9ссз68450 0.0 1025729
07:00−10ссз57510 0.0 1026677
10:00−9с56420 0.0 1028855
13:00−7с55320 0.0 10281180
16:00−6ссв55300 0.0 10281275
19:00−8ссв56330 0.0 1028759
22:00−9ссв563522 0.0 1030779
12 марта, пт
пт1201:00−10ссв6737100 0.0 1030618
04:00−11св5741100 0.0 1030550
07:00−12св574245 0.0 1031464
10:00−10св563226 0.0 1033616
13:00−7св45210 0.0 1033963
16:00−5всв55200 0.0 10321196
19:00−6всв34290 0.0 1033622
22:00−6св45330 0.0 1035431